Regional Weather Roundup
Issued by NWS

Home | Current Version | Previous Version | Text Only | Print | Product List | Glossary Off
Versions: 1 2 3 4 5 6 7 8 9 10 11 12 13 14 15 16 17 18 19 20 21 22 23 24 25 26 27 28 29 30 31 32 33 34 35 36 37 38 39 40 41 42 43 44 45 46 47 48 49 50

000
ASUS43 KLMK 311602
RWRKY
KENTUCKY REGIONAL WEATHER ROUNDUP
NATIONAL WEATHER SERVICE LOUISVILLE KY
1200 PM EDT MON AUG 31 2015

NOTE "FAIR" INDICATES FEW OR NO CLOUDS BELOW 12,000 FEET
WITH NO SIGNIFICANT WEATHER AND/OR OBSTRUCTIONS TO VISIBILITY.

KYZ001>023-026-027-061>063-070>075-311700-
WESTERN AND SOUTH CENTRAL KENTUCKY

CITY           SKY/WX    TMP DP  RH WIND       PRES   REMARKS
PADUCAH        SUNNY     81  68  64 SW5       30.12F
HENDERSON      SUNNY     81  66  61 SW7       30.12S
OWENSBORO      SUNNY     83  68  60 SW6       30.14F
HOPKINSVILLE   SUNNY     79  67  67 VRB1      30.14F
BOWLING GREEN  SUNNY     80  65  59 SE3       30.16S
GLASGOW        SUNNY     79  64  59 CALM      30.17R
$$

KYZ024-025-028>034-038-045-046-053-311700-
NORTH CENTRAL KENTUCKY

CITY           SKY/WX    TMP DP  RH WIND       PRES   REMARKS
LOUISVILLE/SDF MOSUNNY   83  65  54 VRB3      30.14F
LOUISVILLE/LOU SUNNY     81  66  60 VRB5      30.15F
FORT KNOX      SUNNY     82  63  53 VRB6      30.15S
$$

KYZ035>037-039>044-047>052-055>060-089>105-311700-
NORTHEAST KENTUCKY

CITY           SKY/WX    TMP DP  RH WIND       PRES   REMARKS
LEXINGTON      SUNNY     81  63  54 VRB5      30.17F
COVINGTON      MOSUNNY   82  68  62 VRB5      30.15F
FRANKFORT      SUNNY     81  63  54 SW8       30.16F
$$

KYZ054-064>069-076>088-106>120-311700-
SOUTHEAST KENTUCKY

CITY           SKY/WX    TMP DP  RH WIND       PRES   REMARKS
JACKSON        SUNNY     79  66  64 CALM      30.19S
LONDON         SUNNY     81  63  54 NE7       30.18S
SOMERSET       NOT AVBL
MIDDLESBORO    SUNNY     79  65  62 CALM      30.19S
MONTICELLO     SUNNY     81  68  64 CALM      30.20S
$$



USA.gov is the U.S. government's official web portal to all federal, state and local government web resources and services.